Stations météo

réclame
Mon MeteoGroup
Loch Glascarnoch, Grande-Bretagne (3031): Température de l'air & dewpoint: 18.02.2018 21:00:00 - 24.02.2018 21:00:00 (GMT)Loch Glascarnoch, Grande-Bretagne (3031): Température de l'air -20cm & Température de l'air -100cm: 18.02.2018 21:00:00 - 24.02.2018 21:00:00 (GMT)Loch Glascarnoch, Grande-Bretagne (3031): Vitesse du vent & gusts: 18.02.2018 21:00:00 - 24.02.2018 21:00:00 (GMT)Loch Glascarnoch, Grande-Bretagne (3031): Direction du vent: 18.02.2018 21:00:00 - 24.02.2018 21:00:00 (GMT)Loch Glascarnoch, Grande-Bretagne (3031): reduced air pressure: 18.02.2018 21:00:00 - 24.02.2018 21:00:00 (GMT)Loch Glascarnoch, Grande-Bretagne (3031): visibility: 18.02.2018 21:00:00 - 24.02.2018 21:00:00 (GMT)Loch Glascarnoch, Grande-Bretagne (3031): Ensoleillement: 18.02.2018 21:00:00 - 24.02.2018 21:00:00 (GMT)Loch Glascarnoch, Grande-Bretagne (3031): Quantités de précipitations: 18.02.2018 21:00:00 - 24.02.2018 21:00:00 (GMT)
Date & Time tt [°C] td [°C] tt -20cm [°C] tt -100cm [°C] ff [km/h] ff [knt] fx [km/h] fx [knt] dd ppp [hPa] vv [km] sd [min] rr [mm]
24.02.2018 21:00:00 -4,1 -6,4 - - 2 1 - - W 1028,4 14 0 0,0
24.02.2018 20:00:00 -2,2 -5,5 - - 2 1 - - SSE 1027,7 19 0 0,0
24.02.2018 19:00:00 -0,4 -4,7 - - 8 4 - - E 1026,9 23 0 0,0
24.02.2018 18:00:00 -0,2 -4,6 - - 8 4 - - E 1026,5 23 0 0,0
24.02.2018 17:00:00 2,8 -4,3 - - 13 7 - - SE 1025,7 35 54 0,0
24.02.2018 16:00:00 4,6 -4,8 - - 15 8 - - SE 1025,2 30 60 0,0
24.02.2018 15:00:00 4,5 -4,7 - - 21 11 - - ESE 1025,0 30 60 0,0
24.02.2018 14:00:00 4,3 -4,6 - - 22 12 - - ESE 1024,5 35 60 0,0
24.02.2018 13:00:00 3,1 -4,8 - - 26 14 - - ESE 1024,5 40 60 0,0
24.02.2018 12:00:00 2,1 -4,8 - - 21 11 - - ESE 1024,4 24 54 0,0
24.02.2018 11:00:00 1,9 -5,0 - - 24 13 - - ESE 1024,0 35 60 0,0
24.02.2018 10:00:00 1,1 -4,9 - - 13 7 - - E 1023,9 30 12 0,0
24.02.2018 09:00:00 -1,1 -5,4 1,9 2,7 9 5 - - ENE 1023,8 45 0 0,0
24.02.2018 08:00:00 -1,8 -5,3 - - 9 5 - - SE 1023,3 27 0 0,0
24.02.2018 07:00:00 -2,4 -5,8 - - 13 7 - - ESE 1022,6 40 0 0,0
24.02.2018 06:00:00 -1,4 -4,2 - - 16 9 - - SE 1021,7 45 0 0,0
24.02.2018 05:00:00 -2,1 -5,1 - - 8 4 - - E 1021,6 35 0 0,0
24.02.2018 04:00:00 -1,5 -4,3 - - 11 6 - - SSE 1021,1 30 0 0,0
24.02.2018 03:00:00 -2,7 -5,6 - - 4 2 - - SE 1021,3 21 0 0,0
24.02.2018 02:00:00 -0,4 -3,1 - - 16 9 - - SE 1020,7 35 0 0,0
24.02.2018 01:00:00 -1,1 -3,7 - - 16 9 - - ESE 1020,6 24 0 0,0
24.02.2018 00:00:00 0,6 -3,1 - - 21 11 - - E 1020,1 30 - 0,0
23.02.2018 23:00:00 0,9 -2,6 - - 22 12 - - ESE 1019,7 30 0 0,0
23.02.2018 22:00:00 0,1 -3,3 - - 11 6 - - ESE 1019,5 30 0 0,0
23.02.2018 21:00:00 0,7 -3,5 - - 13 7 - - ESE 1019,4 10 0 0,0
23.02.2018 20:00:00 -0,5 -3,9 - - 13 7 - - SE 1019,3 30 0 0,0
23.02.2018 19:00:00 0,4 -3,9 - - 21 11 46 25 SE 1019,0 35 0 0,0
23.02.2018 18:00:00 1,7 -3,9 - - 29 16 48 26 SE 1018,4 30 0 0,0
23.02.2018 17:00:00 2,3 -3,5 - - 22 12 - - SE 1018,2 30 54 0,0
23.02.2018 16:00:00 3,3 -3,2 - - 24 13 - - SE 1018,2 22 60 0,0
23.02.2018 15:00:00 3,7 -2,1 - - 21 11 - - ESE 1018,2 26 60 0,0
23.02.2018 14:00:00 3,9 -1,6 - - 22 12 - - ESE 1018,4 24 60 0,0
23.02.2018 13:00:00 4,0 -1,4 - - 22 12 - - ESE 1018,7 15 60 0,0
23.02.2018 12:00:00 3,4 -0,6 - - 16 9 - - ESE 1018,9 10 60 0,0
23.02.2018 11:00:00 2,8 -1,3 - - 21 11 - - E 1019,0 14 60 0,0
23.02.2018 10:00:00 2,1 -2,0 - - 9 5 - - ESE 1019,2 13 54 0,0
23.02.2018 09:00:00 1,1 -1,8 1,9 2,7 11 6 - - ENE 1019,5 16 12 0,0
23.02.2018 08:00:00 -0,8 -2,4 - - 9 5 - - E 1019,8 14 0 0,0
23.02.2018 07:00:00 -0,2 -2,0 - - 9 5 - - E 1019,8 15 0 0,0
23.02.2018 06:00:00 -0,2 -2,1 - - 11 6 - - ENE 1019,8 16 0 0,0
23.02.2018 05:00:00 0,6 -1,7 - - 9 5 - - SSE 1019,9 24 0 0,0
23.02.2018 04:00:00 0,3 -1,8 - - 4 2 - - W 1020,1 22 0 0,0
23.02.2018 03:00:00 0,9 -1,5 - - 8 4 - - E 1020,0 24 0 0,0
23.02.2018 02:00:00 1,1 -0,9 - - 11 6 - - ESE 1020,0 23 0 0,0
23.02.2018 01:00:00 1,5 -0,8 - - 2 1 - - E 1020,1 28 0 0,0
23.02.2018 00:00:00 1,8 -0,7 - - 11 6 - - E 1019,9 40 - 0,0
22.02.2018 23:00:00 2,5 -0,5 - - 9 5 - - ESE 1019,4 40 0 0,0
22.02.2018 22:00:00 3,1 -0,8 - - 15 8 - - SE 1019,2 40 0 0,0
22.02.2018 21:00:00 3,3 -0,7 - - 18 10 - - SE 1019,5 35 0 0,0
22.02.2018 20:00:00 2,3 -0,5 - - 4 2 - - SSW 1019,6 45 0 0,0
22.02.2018 19:00:00 3,0 0,0 - - 16 9 - - SE 1019,5 30 0 0,0
22.02.2018 18:00:00 3,4 -0,6 - - 15 8 - - SE 1019,3 50 0 0,0
22.02.2018 17:00:00 4,0 -0,8 - - 11 6 - - SE 1019,2 35 0 0,0
22.02.2018 16:00:00 4,4 -0,5 - - 11 6 - - SSE 1019,5 50 0 0,0
22.02.2018 15:00:00 4,8 -0,6 - - 15 8 - - S 1019,6 45 0 0,0
22.02.2018 14:00:00 4,8 -1,1 - - 16 9 - - S 1019,9 25 0 0,0
22.02.2018 13:00:00 4,7 -1,0 - - 16 9 - - S 1020,2 45 0 0,0
22.02.2018 12:00:00 3,6 -0,3 - - 18 10 - - ESE 1020,6 30 12 0,0
22.02.2018 11:00:00 3,6 -0,3 - - 21 11 - - ESE 1020,9 30 48 0,0
22.02.2018 10:00:00 2,2 -0,3 - - 18 10 - - ESE 1021,6 23 6 0,0
22.02.2018 09:00:00 1,1 -0,8 2,0 2,7 16 9 - - ESE 1022,2 18 6 0,0
22.02.2018 08:00:00 0,6 -1,5 - - 16 9 - - ESE 1022,6 21 0 0,0
22.02.2018 07:00:00 0,6 -1,4 - - 18 10 - - SE 1022,9 24 0 0,0
22.02.2018 06:00:00 -0,4 -1,9 - - 2 1 - - WSW 1023,2 22 0 0,0
22.02.2018 05:00:00 0,5 -1,2 - - 15 8 - - ESE 1023,1 19 0 0,0
22.02.2018 04:00:00 0,5 -0,8 - - 15 8 - - ESE 1023,7 22 0 0,0
22.02.2018 03:00:00 -0,9 -1,8 - - 5 3 - - S 1024,5 20 0 0,0
22.02.2018 02:00:00 0,3 -0,8 - - 4 2 - - NE 1025,0 22 0 0,0
22.02.2018 01:00:00 -2,7 -3,1 - - 2 1 - - SSW 1026,1 21 0 0,0
22.02.2018 00:00:00 -3,5 -4,0 - - 4 2 - - W 1026,5 21 - 0,0
21.02.2018 23:00:00 -4,0 -4,5 - - 0 0 - - N 1026,8 19 0 0,0
21.02.2018 22:00:00 -4,3 -4,9 - - 2 1 - - SW 1027,1 18 0 0,0
21.02.2018 21:00:00 -3,8 -4,5 - - 2 1 - - S 1027,4 19 0 0,0
21.02.2018 20:00:00 -3,0 -4,0 - - 2 1 - - NNE 1027,6 20 0 0,0
21.02.2018 19:00:00 -2,0 -3,6 - - 2 1 - - SSE 1027,5 23 0 0,0
21.02.2018 18:00:00 -0,2 -3,1 - - 2 1 - - NNE 1027,3 24 0 0,0
21.02.2018 17:00:00 2,5 -2,4 - - 8 4 - - SW 1026,9 29 54 0,0
21.02.2018 16:00:00 5,5 -2,2 - - 8 4 - - S 1026,6 30 60 0,0
21.02.2018 15:00:00 6,1 -1,7 - - 9 5 - - SE 1027,0 30 60 0,0
21.02.2018 14:00:00 5,8 -0,1 - - 11 6 - - ESE 1027,8 21 60 0,0
21.02.2018 13:00:00 5,2 1,0 - - 11 6 - - ESE 1028,3 18 60 0,0
21.02.2018 12:00:00 4,3 0,4 - - 8 4 - - E 1029,1 16 60 0,0
21.02.2018 11:00:00 2,4 -0,1 - - 4 2 - - SE 1029,6 12 60 0,0
21.02.2018 10:00:00 0,4 -0,1 - - 4 2 - - E 1030,5 11 60 0,0
21.02.2018 09:00:00 -1,2 -1,4 2,2 2,7 2 1 - - ENE 1030,9 10 36 0,0
21.02.2018 08:00:00 -3,2 -3,4 - - 4 2 - - S 1031,1 12 0 0,0
21.02.2018 07:00:00 -4,3 -4,7 - - 0 0 - - N 1031,3 8 0 0,0
21.02.2018 06:00:00 -3,6 -4,0 - - 4 2 - - WSW 1031,3 15 0 0,0
21.02.2018 05:00:00 -2,9 -3,3 - - 5 3 - - W 1031,3 11 0 0,0
21.02.2018 04:00:00 -3,4 -3,8 - - 0 0 - - N 1031,5 6 0 0,0
21.02.2018 03:00:00 -2,1 -2,4 - - 0 0 - - N 1031,6 9 0 0,0
21.02.2018 02:00:00 -2,4 -2,8 - - 2 1 - - NNW 1031,9 10 0 0,0
21.02.2018 01:00:00 -2,1 -2,5 - - 2 1 - - SW 1032,1 12 0 0,0
21.02.2018 00:00:00 -1,7 -2,2 - - 8 4 - - W 1032,0 10 - 0,0
20.02.2018 23:00:00 -1,3 -2,1 - - 4 2 - - WSW 1031,7 11 0 0,0
20.02.2018 22:00:00 1,0 0,4 - - 4 2 - - W 1031,1 11 0 0,0
20.02.2018 21:00:00 0,3 -0,2 - - 5 3 - - WSW 1030,8 11 0 0,0
20.02.2018 20:00:00 -0,5 -1,1 - - 0 0 - - N 1030,7 11 0 0,0
20.02.2018 19:00:00 0,5 -0,8 - - 8 4 - - W 1030,3 11 0 0,0
20.02.2018 18:00:00 2,7 0,4 - - 9 5 - - SW 1029,5 14 0 0,0
20.02.2018 17:00:00 3,4 0,3 - - 11 6 - - W 1028,8 14 36 0,0
20.02.2018 16:00:00 5,1 2,5 - - 16 9 - - W 1028,1 13 18 0,0
20.02.2018 15:00:00 5,3 2,7 - - 15 8 - - W 1027,8 12 12 0,0
20.02.2018 14:00:00 5,3 3,2 - - 16 9 - - WNW 1027,4 13 18 0,2
20.02.2018 13:00:00 5,2 3,5 - - 31 17 - - WNW 1026,8 10 24 0,0
20.02.2018 12:00:00 6,1 3,8 - - 24 13 - - WNW 1026,4 12 18 0,0
20.02.2018 11:00:00 5,3 3,1 - - 26 14 - - WNW 1025,6 15 18 0,0
20.02.2018 10:00:00 5,0 3,7 - - 18 10 - - W 1025,0 12 18 0,0
20.02.2018 09:00:00 4,5 3,4 2,2 2,5 18 10 - - W 1024,5 7 0 0,0
20.02.2018 08:00:00 3,6 2,3 - - 16 9 - - W 1023,8 13 0 0,0
20.02.2018 07:00:00 3,4 2,2 - - 15 8 - - W 1023,1 15 0 0,2
20.02.2018 06:00:00 3,8 2,8 - - 16 9 - - W 1022,1 1,4 0 0,2
20.02.2018 05:00:00 3,5 2,4 - - 21 11 - - W 1021,2 19 0 0,0
20.02.2018 04:00:00 3,9 2,9 - - 21 11 - - W 1020,4 16 0 0,2
20.02.2018 03:00:00 4,1 3,0 - - 21 11 - - W 1019,8 17 0 0,0
20.02.2018 02:00:00 4,1 3,0 - - 8 4 - - WNW 1019,3 17 0 0,0
20.02.2018 01:00:00 2,3 1,3 - - 5 3 - - WNW 1019,0 35 0 0,0
20.02.2018 00:00:00 3,7 2,9 - - 9 5 - - WNW 1018,8 35 - 0,4
19.02.2018 23:00:00 3,8 3,0 - - 18 10 - - WNW 1018,1 9 0 0,2
19.02.2018 22:00:00 4,2 3,4 - - 29 16 - - W 1017,8 13 0 1,4
19.02.2018 21:00:00 5,5 5,1 - - 18 10 - - WNW 1017,1 5 0 1,0
19.02.2018 20:00:00 6,2 5,4 - - 5 3 - - WNW 1016,5 7 0 0,0
19.02.2018 19:00:00 6,7 5,5 - - 11 6 - - SW 1016,0 50 0 0,0
19.02.2018 18:00:00 7,0 5,8 - - 18 10 - - SW 1015,9 12 0 0,0
19.02.2018 17:00:00 7,3 5,8 - - 2 1 - - W 1016,0 28 0 0,0
19.02.2018 16:00:00 7,3 5,9 - - 9 5 - - SSW 1015,8 20 18 0,0
19.02.2018 15:00:00 9,9 5,6 - - 8 4 - - SSW 1015,4 27 54 0,0
19.02.2018 14:00:00 10,1 7,0 - - 8 4 - - W 1015,3 24 30 0,0
19.02.2018 13:00:00 8,9 6,3 - - 8 4 - - WNW 1015,6 23 6 0,0
19.02.2018 12:00:00 8,3 8,1 - - 15 8 - - W 1015,4 20 6 0,0
19.02.2018 11:00:00 4,5 4,5 - - 4 2 - - E 1015,8 7 0 0,0
19.02.2018 10:00:00 4,2 4,2 - - 4 2 - - SE 1015,4 10 0 0,0
19.02.2018 09:00:00 2,9 2,9 1,7 2,5 4 2 - - WSW 1015,2 13 0 0,2
19.02.2018 08:00:00 2,2 2,1 - - 4 2 - - E 1015,0 1,3 0 0,4
19.02.2018 07:00:00 2,1 2,0 - - 2 1 - - E 1014,4 0,6 0 0,0
19.02.2018 06:00:00 2,1 2,0 - - 2 1 - - S 1013,9 1,8 0 0,2
19.02.2018 05:00:00 2,1 1,9 - - 2 1 - - ESE 1013,7 0,8 0 0,2
19.02.2018 04:00:00 1,9 1,7 - - 2 1 - - ESE 1013,4 0,4 0 0,4
19.02.2018 03:00:00 2,1 2,0 - - 2 1 - - SSE 1013,3 1,8 0 0,0
19.02.2018 02:00:00 2,3 2,1 - - 8 4 - - E 1013,1 5 0 0,4
19.02.2018 01:00:00 2,2 1,9 - - 2 1 - - SSE 1013,1 7 0 0,6
19.02.2018 00:00:00 2,7 2,5 - - 9 5 - - NE 1013,0 22 - 0,2
18.02.2018 23:00:00 2,3 2,0 - - 4 2 - - ENE 1013,2 13 0 0,6
18.02.2018 22:00:00 2,7 2,4 - - 5 3 - - ENE 1013,2 40 0 0,4
18.02.2018 21:00:00 2,3 1,8 - - 8 4 - - E 1013,4 14 0 0,6

tt = Température de l'air
td = dewpoint
tt -20cm = Température de l'air -20cm
tt -100cm = Température de l'air -100cm
ff = Vitesse du vent
fx = gusts
dd = Direction du vent
ppp = reduced air pressure
vv = visibility
sd = Ensoleillement
rr = Quantités de précipitations

stations d'obs. à proximité